Flag for Italy Weather past 2 weeks in Naples, Italy

Now
91 °F

Passing clouds.


Feels Like: 92 °F
Forecast: 74 / 94 °F
Wind: 9 mph from South

Location: Naples / Capodichino

Current Time: Aug 29, 2015 at 3:20:09 PM

Latest Report: Aug 29, 2015 at 2:50 PM


Visibility: N/A

Pressure: 30.12 "Hg

Humidity: 38%

Dew point: 63 °F

Location of NaplesLocation

Historic Weather in Naples — Graph

°F

Naples temperature yesterday

Maximum temperature yesterday: 91 °F (at 2:20 PM)
Minimum temperature yesterday: 70 °F (at 6:50 AM)
Average temperature yesterday: 81 °F

Past Weeks' High & Low Weather Summary

 TemperatureHumidityPressure
High93 °F (Aug 29, 11:50 AM)94% (Aug 16, 6:20 AM)30.15 "Hg (Aug 16, 6:20 AM)
Low66 °F (Aug 16, 8:20 AM)29% (Aug 24, 12:50 PM)29.77 "Hg (Aug 16, 7:50 AM)
Average78 °F64%29.97 "Hg
* Reported Aug 14 1:20 PM — Aug 29 1:50 PM, Naples, Weather by CustomWeather, © 2015

Note: Actual official high and low records may vary slightly from our data, if they occured in-between our weather recording intervals... More about our weather records

Advertising

Naples weather history for previous 24 hours

 ConditionsComfort  
Time TempWeatherWind HumidityBarometerVisibility
1:50 PM
Sat, Aug 29
90 °FPassing clouds.9 mph41%30.12 "HgN/A
1:20 PM90 °FPassing clouds.9 mph41%30.15 "HgN/A
12:50 PM90 °FPassing clouds.8 mph46%30.15 "HgN/A
11:50 AM93 °FSunny.2 mph32%30.15 "Hg10 mi
11:20 AM90 °FSunny.2 mph38%30.15 "Hg10 mi
10:50 AM90 °FSunny.2 mph41%30.15 "Hg10 mi
9:50 AM84 °FSunny.2 mph51%30.15 "Hg10 mi
9:20 AM82 °FSunny.2 mph55%30.15 "Hg10 mi
8:50 AM81 °FPassing clouds.3 mph62%30.15 "HgN/A
7:50 AM77 °FSunny.2 mph69%30.15 "Hg10 mi
7:20 AM75 °FClear.2 mph78%30.15 "Hg10 mi
6:50 AM73 °FClear.1 mph83%30.12 "Hg10 mi
6:20 AM73 °FClear.1 mph78%30.12 "Hg10 mi
5:50 AM75 °FPassing clouds.2 mph78%30.12 "HgN/A
4:50 AM75 °FPassing clouds.No wind78%30.12 "HgN/A
3:20 AM75 °FPassing clouds.2 mph78%30.12 "HgN/A
1:50 AM77 °FPassing clouds.2 mph65%30.12 "HgN/A
1:20 AM77 °FPassing clouds.3 mph65%30.12 "HgN/A
12:20 AM77 °FPassing clouds.No wind74%30.12 "HgN/A
11:50 PM
Fri, Aug 28
77 °FClear.2 mph74%30.12 "Hg10 mi
10:50 PM77 °FClear.2 mph74%30.12 "Hg10 mi
10:20 PM79 °FPassing clouds.3 mph70%30.12 "HgN/A
9:50 PM77 °FClear.5 mph74%30.12 "Hg10 mi
9:20 PM79 °FPassing clouds.6 mph70%30.12 "HgN/A
8:50 PM79 °FPassing clouds.7 mph70%30.12 "HgN/A
8:20 PM81 °FPassing clouds.7 mph66%30.09 "HgN/A
7:50 PM81 °FPassing clouds.7 mph62%30.09 "HgN/A
7:20 PM82 °FPassing clouds.7 mph62%30.09 "HgN/A
6:50 PM84 °FPassing clouds.9 mph55%30.09 "HgN/A
6:20 PM84 °FPassing clouds.9 mph55%30.09 "HgN/A
5:50 PM86 °FSunny.10 mph52%30.09 "Hg10 mi
5:20 PM86 °FSunny.12 mph52%30.09 "Hg10 mi
4:50 PM88 °FSunny.10 mph49%30.09 "Hg10 mi
4:20 PM90 °FPassing clouds.9 mph46%30.09 "HgN/A
3:50 PM91 °FPassing clouds.9 mph41%30.09 "HgN/A
3:20 PM91 °FPassing clouds.7 mph41%30.09 "HgN/A
Weather by CustomWeather, © 2015

See weather overviewHow to use our weather pages